Location: Ahstedt
(52.2048°N, 10.1060°E)
Time: 23:40:20
(UTC+00:00)

GEOS 3 Rocket - Pass Details

Date: 18 January 2026
Orbit: 768 x 845 km, 115.0° (Epoch: 7 February)

Event Time Altitude Azimuth Distance (km) Brightness Sun altitude
Rises 04:54:13 0° 138° (SE) 3,316 7.5 -21.5°
Reaches altitude 10° 04:56:30 10° 139° (SE) 2,399 6.7 -21.1°
Maximum altitude 05:01:44 81° 227° (SW) 843 3.6 -20.3°
Enters shadow 05:04:15 33° 310° (NW) 1,378 4.4 -20.0°
